owner,sensor,date,latitude,longitude,vertical_datum,sea_water_temperature,qcFlag
ADCP,ioos:station:wmo:42384:1,2020-05-01T00:00:00Z,27.9920,-90.3255,13.0,25.3,11111222
ADCP,ioos:station:wmo:42384:1,2020-05-01T00:10:00Z,27.9920,-90.3255,12.8,25.3,11111222
ADCP,ioos:station:wmo:42384:1,2020-05-01T00:20:00Z,27.9920,-90.3255,13.0,25.2,11111222
ADCP,ioos:station:wmo:42384:1,2020-05-01T00:30:00Z,27.9920,-90.3255,12.9,25.2,11111222
ADCP,ioos:station:wmo:42384:1,2020-05-01T00:40:00Z,27.9920,-90.3255,13.0,25.2,11111222
ADCP,ioos:station:wmo:42384:1,2020-05-01T00:50:00Z,27.9920,-90.3255,13.0,25.2,11111222
ADCP,ioos:station:wmo:42384:1,2020-05-01T01:00:00Z,27.9920,-90.3255,13.0,25.2,11111222
ADCP,ioos:station:wmo:42384:1,2020-05-01T01:10:00Z,27.9920,-90.3255,13.0,25.2,11111222
ADCP,ioos:station:wmo:42384:1,2020-05-01T01:20:00Z,27.9920,-90.3255,12.8,25.2,11111222
ADCP,ioos:station:wmo:42384:1,2020-05-01T01:30:00Z,27.9920,-90.3255,12.9,25.2,11111222
ADCP,ioos:station:wmo:42384:1,2020-05-01T01:40:00Z,27.9920,-90.3255,12.9,25.2,11111222
ADCP,ioos:station:wmo:42384:1,2020-05-01T01:50:00Z,27.9920,-90.3255,12.8,25.2,11111222
ADCP,ioos:station:wmo:42384:1,2020-05-01T02:00:00Z,27.9920,-90.3255,12.9,25.2,11111222
ADCP,ioos:station:wmo:42384:1,2020-05-01T02:10:00Z,27.9920,-90.3255,12.8,25.2,11111222
ADCP,ioos:station:wmo:42384:1,2020-05-01T02:20:00Z,27.9920,-90.3255,12.8,25.2,11111222
ADCP,ioos:station:wmo:42384:1,2020-05-01T02:30:00Z,27.9920,-90.3255,13.0,25.2,11111222
ADCP,ioos:station:wmo:42384:1,2020-05-01T02:40:00Z,27.9920,-90.3255,12.9,25.2,11111222
ADCP,ioos:station:wmo:42384:1,2020-05-01T02:50:00Z,27.9920,-90.3255,12.9,25.1,11111222
ADCP,ioos:station:wmo:42384:1,2020-05-01T03:00:00Z,27.9920,-90.3255,12.7,25.1,11111222
ADCP,ioos:station:wmo:42384:1,2020-05-01T03:10:00Z,27.9920,-90.3255,12.8,25.1,11111222
ADCP,ioos:station:wmo:42384:1,2020-05-01T03:20:00Z,27.9920,-90.3255,12.8,25.1,11111222
ADCP,ioos:station:wmo:42384:1,2020-05-01T03:30:00Z,27.9920,-90.3255,12.7,25.1,11111222
ADCP,ioos:station:wmo:42384:1,2020-05-01T03:41:00Z,27.9920,-90.3255,12.8,25.1,11111222
ADCP,ioos:station:wmo:42384:1,2020-05-01T03:51:00Z,27.9920,-90.3255,12.7,25.1,11111222
ADCP,ioos:station:wmo:42384:1,2020-05-01T04:01:00Z,27.9920,-90.3255,12.8,25.1,11111222
ADCP,ioos:station:wmo:42384:1,2020-05-01T04:11:00Z,27.9920,-90.3255,12.8,25.1,11111222
ADCP,ioos:station:wmo:42384:1,2020-05-01T04:21:00Z,27.9920,-90.3255,12.8,25.1,11111222
ADCP,ioos:station:wmo:42384:1,2020-05-01T04:31:00Z,27.9920,-90.3255,12.8,25.1,11111222
ADCP,ioos:station:wmo:42384:1,2020-05-01T04:41:00Z,27.9920,-90.3255,12.7,25.1,11111222
ADCP,ioos:station:wmo:42384:1,2020-05-01T04:51:00Z,27.9920,-90.3255,12.8,25.0,11111222
ADCP,ioos:station:wmo:42384:1,2020-05-01T05:01:00Z,27.9920,-90.3255,12.8,25.0,11111222
ADCP,ioos:station:wmo:42384:1,2020-05-01T05:11:00Z,27.9920,-90.3255,12.8,25.0,11111222
ADCP,ioos:station:wmo:42384:1,2020-05-01T05:21:00Z,27.9920,-90.3255,12.5,25.0,11111222
ADCP,ioos:station:wmo:42384:1,2020-05-01T05:31:00Z,27.9920,-90.3255,12.7,25.0,11111222
ADCP,ioos:station:wmo:42384:1,2020-05-01T05:41:00Z,27.9920,-90.3255,12.8,25.0,11111222
ADCP,ioos:station:wmo:42384:1,2020-05-01T05:51:00Z,27.9920,-90.3255,12.7,25.0,11111222
ADCP,ioos:station:wmo:42384:1,2020-05-01T06:01:00Z,27.9920,-90.3255,12.8,25.0,11111222
ADCP,ioos:station:wmo:42384:1,2020-05-01T06:11:00Z,27.9920,-90.3255,12.7,25.0,11111222
ADCP,ioos:station:wmo:42384:1,2020-05-01T06:21:00Z,27.9920,-90.3255,12.6,25.0,11111222
ADCP,ioos:station:wmo:42384:1,2020-05-01T06:31:00Z,27.9920,-90.3255,12.7,24.9,11111222
ADCP,ioos:station:wmo:42384:1,2020-05-01T06:41:00Z,27.9920,-90.3255,12.7,24.9,11111222
ADCP,ioos:station:wmo:42384:1,2020-05-01T06:51:00Z,27.9920,-90.3255,12.8,24.9,11111222
ADCP,ioos:station:wmo:42384:1,2020-05-01T07:01:00Z,27.9920,-90.3255,12.6,24.9,11111222
ADCP,ioos:station:wmo:42384:1,2020-05-01T07:11:00Z,27.9920,-90.3255,12.7,24.9,11111222
ADCP,ioos:station:wmo:42384:1,2020-05-01T07:21:00Z,27.9920,-90.3255,12.6,24.9,11111222
ADCP,ioos:station:wmo:42384:1,2020-05-01T07:31:00Z,27.9920,-90.3255,12.8,24.9,11111222
ADCP,ioos:station:wmo:42384:1,2020-05-01T07:41:00Z,27.9920,-90.3255,12.6,24.9,11111222
ADCP,ioos:station:wmo:42384:1,2020-05-01T07:51:00Z,27.9920,-90.3255,12.8,24.9,11111222
ADCP,ioos:station:wmo:42384:1,2020-05-01T08:01:00Z,27.9920,-90.3255,12.8,24.9,11111222
ADCP,ioos:station:wmo:42384:1,2020-05-01T08:11:00Z,27.9920,-90.3255,12.7,24.9,11111222
ADCP,ioos:station:wmo:42384:1,2020-05-01T08:21:00Z,27.9920,-90.3255,12.7,24.9,11111222
ADCP,ioos:station:wmo:42384:1,2020-05-01T08:31:00Z,27.9920,-90.3255,12.8,24.9,11111222
ADCP,ioos:station:wmo:42384:1,2020-05-01T08:41:00Z,27.9920,-90.3255,12.8,24.9,11111222
ADCP,ioos:station:wmo:42384:1,2020-05-01T08:51:00Z,27.9920,-90.3255,12.7,24.9,11111222
ADCP,ioos:station:wmo:42384:1,2020-05-01T09:01:00Z,27.9920,-90.3255,12.7,24.9,11111222
ADCP,ioos:station:wmo:42384:1,2020-05-01T09:11:00Z,27.9920,-90.3255,12.8,24.9,11111222
ADCP,ioos:station:wmo:42384:1,2020-05-01T09:21:00Z,27.9920,-90.3255,12.9,24.9,11111222
ADCP,ioos:station:wmo:42384:1,2020-05-01T09:31:00Z,27.9920,-90.3255,12.7,24.9,11111222
ADCP,ioos:station:wmo:42384:1,2020-05-01T09:41:00Z,27.9920,-90.3255,12.9,24.9,11111222
ADCP,ioos:station:wmo:42384:1,2020-05-01T09:51:00Z,27.9920,-90.3255,12.9,24.9,11111222
ADCP,ioos:station:wmo:42384:1,2020-05-01T10:01:00Z,27.9920,-90.3255,12.8,24.9,11111222
ADCP,ioos:station:wmo:42384:1,2020-05-01T10:11:00Z,27.9920,-90.3255,12.8,24.9,11111222
ADCP,ioos:station:wmo:42384:1,2020-05-01T10:21:00Z,27.9920,-90.3255,12.8,24.9,11111222
ADCP,ioos:station:wmo:42384:1,2020-05-01T10:31:00Z,27.9920,-90.3255,12.8,24.9,11111222
ADCP,ioos:station:wmo:42384:1,2020-05-01T10:41:00Z,27.9920,-90.3255,12.9,24.9,11111222
ADCP,ioos:station:wmo:42384:1,2020-05-01T10:51:00Z,27.9920,-90.3255,12.7,24.9,11111222
ADCP,ioos:station:wmo:42384:1,2020-05-01T11:01:00Z,27.9920,-90.3255,13.0,24.9,11111222
ADCP,ioos:station:wmo:42384:1,2020-05-01T11:18:00Z,27.9920,-90.3255,12.9,24.9,11111222
ADCP,ioos:station:wmo:42384:1,2020-05-01T11:28:00Z,27.9920,-90.3255,12.9,24.9,11111222
ADCP,ioos:station:wmo:42384:1,2020-05-01T11:38:00Z,27.9920,-90.3255,13.0,24.9,11111222
ADCP,ioos:station:wmo:42384:1,2020-05-01T11:48:00Z,27.9920,-90.3255,12.9,24.9,11111222
ADCP,ioos:station:wmo:42384:1,2020-05-01T11:58:00Z,27.9920,-90.3255,13.0,24.9,11111222
ADCP,ioos:station:wmo:42384:1,2020-05-01T12:08:00Z,27.9920,-90.3255,12.9,24.9,11111222
ADCP,ioos:station:wmo:42384:1,2020-05-01T12:18:00Z,27.9920,-90.3255,13.1,24.9,11111222
ADCP,ioos:station:wmo:42384:1,2020-05-01T12:28:00Z,27.9920,-90.3255,12.9,24.9,11111222
ADCP,ioos:station:wmo:42384:1,2020-05-01T12:38:00Z,27.9920,-90.3255,12.9,24.9,11111222
ADCP,ioos:station:wmo:42384:1,2020-05-01T12:48:00Z,27.9920,-90.3255,12.9,24.9,11111222
ADCP,ioos:station:wmo:42384:1,2020-05-01T12:58:00Z,27.9920,-90.3255,13.0,25.0,11111222
ADCP,ioos:station:wmo:42384:1,2020-05-01T13:08:00Z,27.9920,-90.3255,12.9,25.0,11111222
ADCP,ioos:station:wmo:42384:1,2020-05-01T13:18:00Z,27.9920,-90.3255,13.0,25.0,11111222
ADCP,ioos:station:wmo:42384:1,2020-05-01T13:28:00Z,27.9920,-90.3255,13.1,25.0,11111222
ADCP,ioos:station:wmo:42384:1,2020-05-01T13:38:00Z,27.9920,-90.3255,13.0,25.0,11111222
ADCP,ioos:station:wmo:42384:1,2020-05-01T13:48:00Z,27.9920,-90.3255,13.0,25.0,11111222
ADCP,ioos:station:wmo:42384:1,2020-05-01T13:58:00Z,27.9920,-90.3255,13.1,25.0,11111222
ADCP,ioos:station:wmo:42384:1,2020-05-01T14:08:00Z,27.9920,-90.3255,13.1,25.0,11111222
ADCP,ioos:station:wmo:42384:1,2020-05-01T14:19:00Z,27.9920,-90.3255,13.0,25.0,11111222
ADCP,ioos:station:wmo:42384:1,2020-05-01T14:29:00Z,27.9920,-90.3255,13.0,25.0,11111222
ADCP,ioos:station:wmo:42384:1,2020-05-01T14:39:00Z,27.9920,-90.3255,13.1,25.0,11111222
ADCP,ioos:station:wmo:42384:1,2020-05-01T14:49:00Z,27.9920,-90.3255,13.1,25.0,11111222
ADCP,ioos:station:wmo:42384:1,2020-05-01T14:59:00Z,27.9920,-90.3255,13.1,25.0,11111222
ADCP,ioos:station:wmo:42384:1,2020-05-01T15:09:00Z,27.9920,-90.3255,13.1,25.0,11111222
ADCP,ioos:station:wmo:42384:1,2020-05-01T15:19:00Z,27.9920,-90.3255,13.1,25.0,11111222
ADCP,ioos:station:wmo:42384:1,2020-05-01T15:29:00Z,27.9920,-90.3255,13.1,25.0,11111222
ADCP,ioos:station:wmo:42384:1,2020-05-01T15:39:00Z,27.9920,-90.3255,13.2,25.0,11111222
ADCP,ioos:station:wmo:42384:1,2020-05-01T15:49:00Z,27.9920,-90.3255,13.1,25.0,11111222
ADCP,ioos:station:wmo:42384:1,2020-05-01T15:59:00Z,27.9920,-90.3255,13.1,25.0,11111222
ADCP,ioos:station:wmo:42384:1,2020-05-01T16:09:00Z,27.9920,-90.3255,13.2,25.0,11111222
ADCP,ioos:station:wmo:42384:1,2020-05-01T16:19:00Z,27.9920,-90.3255,13.2,25.0,11111222
ADCP,ioos:station:wmo:42384:1,2020-05-01T16:29:00Z,27.9920,-90.3255,13.3,25.0,11111222
ADCP,ioos:station:wmo:42384:1,2020-05-01T16:39:00Z,27.9920,-90.3255,13.2,25.0,11111222
ADCP,ioos:station:wmo:42384:1,2020-05-01T16:49:00Z,27.9920,-90.3255,13.1,25.0,11111222
ADCP,ioos:station:wmo:42384:1,2020-05-01T16:59:00Z,27.9920,-90.3255,13.3,25.0,11111222
ADCP,ioos:station:wmo:42384:1,2020-05-01T17:09:00Z,27.9920,-90.3255,13.2,25.0,11111222
ADCP,ioos:station:wmo:42384:1,2020-05-01T17:19:00Z,27.9920,-90.3255,13.2,25.0,11111222
ADCP,ioos:station:wmo:42384:1,2020-05-01T17:29:00Z,27.9920,-90.3255,13.3,25.0,11111222
ADCP,ioos:station:wmo:42384:1,2020-05-01T17:39:00Z,27.9920,-90.3255,13.2,25.0,11111222
ADCP,ioos:station:wmo:42384:1,2020-05-01T17:49:00Z,27.9920,-90.3255,13.1,25.0,11111222
ADCP,ioos:station:wmo:42384:1,2020-05-01T17:59:00Z,27.9920,-90.3255,13.2,25.0,11111222
ADCP,ioos:station:wmo:42384:1,2020-05-01T18:09:00Z,27.9920,-90.3255,13.3,25.0,11111222
ADCP,ioos:station:wmo:42384:1,2020-05-01T18:19:00Z,27.9920,-90.3255,13.1,24.9,11111222
ADCP,ioos:station:wmo:42384:1,2020-05-01T18:29:00Z,27.9920,-90.3255,13.0,24.9,11111222
ADCP,ioos:station:wmo:42384:1,2020-05-01T18:39:00Z,27.9920,-90.3255,13.2,24.9,11111222
ADCP,ioos:station:wmo:42384:1,2020-05-01T18:49:00Z,27.9920,-90.3255,13.1,24.9,11111222
ADCP,ioos:station:wmo:42384:1,2020-05-01T18:59:00Z,27.9920,-90.3255,13.2,24.9,11111222
ADCP,ioos:station:wmo:42384:1,2020-05-01T19:09:00Z,27.9920,-90.3255,13.2,24.9,11111222
ADCP,ioos:station:wmo:42384:1,2020-05-01T19:19:00Z,27.9920,-90.3255,13.2,24.9,11111222
ADCP,ioos:station:wmo:42384:1,2020-05-01T19:29:00Z,27.9920,-90.3255,13.3,24.9,11111222
ADCP,ioos:station:wmo:42384:1,2020-05-01T19:39:00Z,27.9920,-90.3255,13.1,24.9,11111222
ADCP,ioos:station:wmo:42384:1,2020-05-01T19:49:00Z,27.9920,-90.3255,13.2,24.9,11111222
ADCP,ioos:station:wmo:42384:1,2020-05-01T19:59:00Z,27.9920,-90.3255,13.1,24.9,11111222
ADCP,ioos:station:wmo:42384:1,2020-05-01T20:09:00Z,27.9920,-90.3255,13.1,24.9,11111222
ADCP,ioos:station:wmo:42384:1,2020-05-01T20:19:00Z,27.9920,-90.3255,13.2,24.9,11111222
ADCP,ioos:station:wmo:42384:1,2020-05-01T20:29:00Z,27.9920,-90.3255,13.1,24.9,11111222
ADCP,ioos:station:wmo:42384:1,2020-05-01T20:39:00Z,27.9920,-90.3255,13.1,24.9,11111222
ADCP,ioos:station:wmo:42384:1,2020-05-01T20:49:00Z,27.9920,-90.3255,13.2,24.9,11111222
ADCP,ioos:station:wmo:42384:1,2020-05-01T20:59:00Z,27.9920,-90.3255,13.1,24.9,11111222
ADCP,ioos:station:wmo:42384:1,2020-05-01T21:09:00Z,27.9920,-90.3255,13.2,24.9,11111222
ADCP,ioos:station:wmo:42384:1,2020-05-01T21:19:00Z,27.9920,-90.3255,13.2,24.9,11111222
ADCP,ioos:station:wmo:42384:1,2020-05-01T21:29:00Z,27.9920,-90.3255,13.2,24.9,11111222
ADCP,ioos:station:wmo:42384:1,2020-05-01T21:39:00Z,27.9920,-90.3255,13.2,24.9,11111222
ADCP,ioos:station:wmo:42384:1,2020-05-01T21:49:00Z,27.9920,-90.3255,13.1,24.9,11111222
ADCP,ioos:station:wmo:42384:1,2020-05-01T21:59:00Z,27.9920,-90.3255,13.1,24.9,11111222
ADCP,ioos:station:wmo:42384:1,2020-05-01T22:09:00Z,27.9920,-90.3255,13.1,24.9,11111222
ADCP,ioos:station:wmo:42384:1,2020-05-01T22:19:00Z,27.9920,-90.3255,13.1,24.9,11111222
ADCP,ioos:station:wmo:42384:1,2020-05-01T22:29:00Z,27.9920,-90.3255,13.1,24.9,11111222
ADCP,ioos:station:wmo:42384:1,2020-05-01T22:39:00Z,27.9920,-90.3255,13.0,24.9,11111222
ADCP,ioos:station:wmo:42384:1,2020-05-01T22:49:00Z,27.9920,-90.3255,13.1,24.9,11111222
ADCP,ioos:station:wmo:42384:1,2020-05-01T22:59:00Z,27.9920,-90.3255,13.1,24.9,11111222
ADCP,ioos:station:wmo:42384:1,2020-05-01T23:09:00Z,27.9920,-90.3255,13.1,24.9,11111222
ADCP,ioos:station:wmo:42384:1,2020-05-01T23:19:00Z,27.9920,-90.3255,13.2,24.9,11111222
ADCP,ioos:station:wmo:42384:1,2020-05-01T23:29:00Z,27.9920,-90.3255,13.1,25.0,11111222
ADCP,ioos:station:wmo:42384:1,2020-05-01T23:39:00Z,27.9920,-90.3255,12.9,24.9,11111222
ADCP,ioos:station:wmo:42384:1,2020-05-01T23:49:00Z,27.9920,-90.3255,13.0,24.9,11111222
ADCP,ioos:station:wmo:42384:1,2020-05-01T23:59:00Z,27.9920,-90.3255,13.0,24.9,11111222
ADCP,ioos:station:wmo:42384:1,2020-05-02T00:09:00Z,27.9920,-90.3255,13.2,24.9,11111222
ADCP,ioos:station:wmo:42384:1,2020-05-02T00:19:00Z,27.9920,-90.3255,13.1,25.0,11111222
ADCP,ioos:station:wmo:42384:1,2020-05-02T00:29:00Z,27.9920,-90.3255,13.0,25.0,11111222
ADCP,ioos:station:wmo:42384:1,2020-05-02T00:39:00Z,27.9920,-90.3255,12.9,25.0,11111222
ADCP,ioos:station:wmo:42384:1,2020-05-02T00:49:00Z,27.9920,-90.3255,13.0,25.0,11111222
ADCP,ioos:station:wmo:42384:1,2020-05-02T00:59:00Z,27.9920,-90.3255,13.1,25.0,11111222
ADCP,ioos:station:wmo:42384:1,2020-05-02T01:14:00Z,27.9920,-90.3255,13.1,25.0,11111222
ADCP,ioos:station:wmo:42384:1,2020-05-02T01:24:00Z,27.9920,-90.3255,12.9,25.0,11111222
ADCP,ioos:station:wmo:42384:1,2020-05-02T01:34:00Z,27.9920,-90.3255,13.0,25.0,11111222
ADCP,ioos:station:wmo:42384:1,2020-05-02T01:44:00Z,27.9920,-90.3255,13.0,25.0,11111222
ADCP,ioos:station:wmo:42384:1,2020-05-02T01:54:00Z,27.9920,-90.3255,13.1,25.0,11111222
ADCP,ioos:station:wmo:42384:1,2020-05-02T02:04:00Z,27.9920,-90.3255,12.9,25.0,11111222
ADCP,ioos:station:wmo:42384:1,2020-05-02T02:14:00Z,27.9920,-90.3255,13.0,25.0,11111222
ADCP,ioos:station:wmo:42384:1,2020-05-02T02:24:00Z,27.9920,-90.3255,12.9,25.0,11111222
ADCP,ioos:station:wmo:42384:1,2020-05-02T02:34:00Z,27.9920,-90.3255,13.0,25.1,11111222
ADCP,ioos:station:wmo:42384:1,2020-05-02T02:44:00Z,27.9920,-90.3255,12.9,25.1,11111222
ADCP,ioos:station:wmo:42384:1,2020-05-02T02:54:00Z,27.9920,-90.3255,12.9,25.1,11111222
ADCP,ioos:station:wmo:42384:1,2020-05-02T03:04:00Z,27.9920,-90.3255,13.0,25.1,11111222
ADCP,ioos:station:wmo:42384:1,2020-05-02T03:14:00Z,27.9920,-90.3255,12.9,25.1,11111222
ADCP,ioos:station:wmo:42384:1,2020-05-02T03:24:00Z,27.9920,-90.3255,12.9,25.1,11111222
ADCP,ioos:station:wmo:42384:1,2020-05-02T03:34:00Z,27.9920,-90.3255,12.9,25.1,11111222
ADCP,ioos:station:wmo:42384:1,2020-05-02T03:44:00Z,27.9920,-90.3255,13.0,25.1,11111222
ADCP,ioos:station:wmo:42384:1,2020-05-02T03:54:00Z,27.9920,-90.3255,12.8,25.1,11111222
ADCP,ioos:station:wmo:42384:1,2020-05-02T04:04:00Z,27.9920,-90.3255,12.8,25.1,11111222
ADCP,ioos:station:wmo:42384:1,2020-05-02T04:14:00Z,27.9920,-90.3255,13.0,25.1,11111222
ADCP,ioos:station:wmo:42384:1,2020-05-02T04:24:00Z,27.9920,-90.3255,12.8,25.1,11111222
ADCP,ioos:station:wmo:42384:1,2020-05-02T04:34:00Z,27.9920,-90.3255,12.9,25.1,11111222
ADCP,ioos:station:wmo:42384:1,2020-05-02T04:44:00Z,27.9920,-90.3255,12.8,25.1,11111222
ADCP,ioos:station:wmo:42384:1,2020-05-02T04:54:00Z,27.9920,-90.3255,12.8,25.1,11111222
ADCP,ioos:station:wmo:42384:1,2020-05-02T05:04:00Z,27.9920,-90.3255,12.8,25.1,11111222
ADCP,ioos:station:wmo:42384:1,2020-05-02T05:14:00Z,27.9920,-90.3255,12.8,25.1,11111222
ADCP,ioos:station:wmo:42384:1,2020-05-02T05:24:00Z,27.9920,-90.3255,12.7,25.1,11111222
ADCP,ioos:station:wmo:42384:1,2020-05-02T05:34:00Z,27.9920,-90.3255,12.8,25.1,11111222
ADCP,ioos:station:wmo:42384:1,2020-05-02T05:44:00Z,27.9920,-90.3255,12.6,25.1,11111222
ADCP,ioos:station:wmo:42384:1,2020-05-02T05:54:00Z,27.9920,-90.3255,12.8,25.1,11111222
ADCP,ioos:station:wmo:42384:1,2020-05-02T06:04:00Z,27.9920,-90.3255,12.8,25.1,11111222
ADCP,ioos:station:wmo:42384:1,2020-05-02T06:14:00Z,27.9920,-90.3255,12.9,25.1,11111222
ADCP,ioos:station:wmo:42384:1,2020-05-02T06:24:00Z,27.9920,-90.3255,12.8,25.1,11111222
ADCP,ioos:station:wmo:42384:1,2020-05-02T06:34:00Z,27.9920,-90.3255,12.7,25.1,11111222
ADCP,ioos:station:wmo:42384:1,2020-05-02T06:44:00Z,27.9920,-90.3255,12.8,25.1,11111222
ADCP,ioos:station:wmo:42384:1,2020-05-02T06:54:00Z,27.9920,-90.3255,12.8,25.1,11111222
ADCP,ioos:station:wmo:42384:1,2020-05-02T07:04:00Z,27.9920,-90.3255,12.8,25.1,11111222
ADCP,ioos:station:wmo:42384:1,2020-05-02T07:14:00Z,27.9920,-90.3255,12.8,25.1,11111222
ADCP,ioos:station:wmo:42384:1,2020-05-02T07:24:00Z,27.9920,-90.3255,12.8,25.1,11111222
ADCP,ioos:station:wmo:42384:1,2020-05-02T07:34:00Z,27.9920,-90.3255,12.7,25.1,11111222
ADCP,ioos:station:wmo:42384:1,2020-05-02T07:44:00Z,27.9920,-90.3255,12.7,25.1,11111222
ADCP,ioos:station:wmo:42384:1,2020-05-02T07:54:00Z,27.9920,-90.3255,12.8,25.1,11111222
ADCP,ioos:station:wmo:42384:1,2020-05-02T08:04:00Z,27.9920,-90.3255,12.8,25.1,11111222
ADCP,ioos:station:wmo:42384:1,2020-05-02T08:14:00Z,27.9920,-90.3255,12.8,25.1,11111222
ADCP,ioos:station:wmo:42384:1,2020-05-02T08:24:00Z,27.9920,-90.3255,12.7,25.1,11111222
ADCP,ioos:station:wmo:42384:1,2020-05-02T08:34:00Z,27.9920,-90.3255,12.9,25.1,11111222
ADCP,ioos:station:wmo:42384:1,2020-05-02T08:44:00Z,27.9920,-90.3255,12.9,25.1,11111222
ADCP,ioos:station:wmo:42384:1,2020-05-02T08:54:00Z,27.9920,-90.3255,12.7,25.1,11111222
ADCP,ioos:station:wmo:42384:1,2020-05-02T09:04:00Z,27.9920,-90.3255,12.8,25.1,11111222
ADCP,ioos:station:wmo:42384:1,2020-05-02T09:14:00Z,27.9920,-90.3255,12.7,25.1,11111222
ADCP,ioos:station:wmo:42384:1,2020-05-02T09:24:00Z,27.9920,-90.3255,12.7,25.0,11111222
ADCP,ioos:station:wmo:42384:1,2020-05-02T09:34:00Z,27.9920,-90.3255,12.8,25.0,11111222
ADCP,ioos:station:wmo:42384:1,2020-05-02T09:44:00Z,27.9920,-90.3255,12.8,25.0,11111222
ADCP,ioos:station:wmo:42384:1,2020-05-02T09:54:00Z,27.9920,-90.3255,12.9,25.0,11111222
ADCP,ioos:station:wmo:42384:1,2020-05-02T10:04:00Z,27.9920,-90.3255,12.8,25.0,11111222
ADCP,ioos:station:wmo:42384:1,2020-05-02T10:14:00Z,27.9920,-90.3255,12.8,25.0,11111222
ADCP,ioos:station:wmo:42384:1,2020-05-02T10:24:00Z,27.9920,-90.3255,12.9,25.0,11111222
ADCP,ioos:station:wmo:42384:1,2020-05-02T10:34:00Z,27.9920,-90.3255,12.8,25.0,11111222
ADCP,ioos:station:wmo:42384:1,2020-05-02T10:44:00Z,27.9920,-90.3255,12.7,25.0,11111222
ADCP,ioos:station:wmo:42384:1,2020-05-02T10:54:00Z,27.9920,-90.3255,12.8,25.0,11111222
ADCP,ioos:station:wmo:42384:1,2020-05-02T11:04:00Z,27.9920,-90.3255,12.8,25.0,11111222
ADCP,ioos:station:wmo:42384:1,2020-05-02T11:14:00Z,27.9920,-90.3255,12.8,25.0,11111222
ADCP,ioos:station:wmo:42384:1,2020-05-02T11:24:00Z,27.9920,-90.3255,12.9,25.0,11111222
ADCP,ioos:station:wmo:42384:1,2020-05-02T11:34:00Z,27.9920,-90.3255,12.9,25.0,11111222
ADCP,ioos:station:wmo:42384:1,2020-05-02T11:44:00Z,27.9920,-90.3255,12.9,25.0,11111222
ADCP,ioos:station:wmo:42384:1,2020-05-02T11:54:00Z,27.9920,-90.3255,12.9,25.0,11111222
ADCP,ioos:station:wmo:42384:1,2020-05-02T12:04:00Z,27.9920,-90.3255,12.8,25.0,11111222
ADCP,ioos:station:wmo:42384:1,2020-05-02T12:14:00Z,27.9920,-90.3255,12.9,25.0,11111222
ADCP,ioos:station:wmo:42384:1,2020-05-02T12:24:00Z,27.9920,-90.3255,12.9,25.0,11111222
ADCP,ioos:station:wmo:42384:1,2020-05-02T12:34:00Z,27.9920,-90.3255,13.0,25.0,11111222
ADCP,ioos:station:wmo:42384:1,2020-05-02T12:44:00Z,27.9920,-90.3255,12.9,25.0,11111222
ADCP,ioos:station:wmo:42384:1,2020-05-02T12:54:00Z,27.9920,-90.3255,12.9,25.0,11111222
ADCP,ioos:station:wmo:42384:1,2020-05-02T13:04:00Z,27.9920,-90.3255,13.0,25.0,11111222
ADCP,ioos:station:wmo:42384:1,2020-05-02T13:14:00Z,27.9920,-90.3255,12.8,25.0,11111222
ADCP,ioos:station:wmo:42384:1,2020-05-02T13:24:00Z,27.9920,-90.3255,13.0,25.0,11111222
ADCP,ioos:station:wmo:42384:1,2020-05-02T13:34:00Z,27.9920,-90.3255,13.0,25.0,11111222
ADCP,ioos:station:wmo:42384:1,2020-05-02T13:44:00Z,27.9920,-90.3255,12.9,25.0,11111222
ADCP,ioos:station:wmo:42384:1,2020-05-02T13:54:00Z,27.9920,-90.3255,13.0,25.0,11111222
ADCP,ioos:station:wmo:42384:1,2020-05-02T14:04:00Z,27.9920,-90.3255,13.0,25.0,11111222
ADCP,ioos:station:wmo:42384:1,2020-05-02T14:14:00Z,27.9920,-90.3255,13.0,25.0,11111222
ADCP,ioos:station:wmo:42384:1,2020-05-02T14:24:00Z,27.9920,-90.3255,13.2,25.0,11111222
ADCP,ioos:station:wmo:42384:1,2020-05-02T14:34:00Z,27.9920,-90.3255,13.1,25.0,11111222
ADCP,ioos:station:wmo:42384:1,2020-05-02T14:44:00Z,27.9920,-90.3255,13.1,25.0,11111222
ADCP,ioos:station:wmo:42384:1,2020-05-02T14:54:00Z,27.9920,-90.3255,13.0,25.0,11111222
ADCP,ioos:station:wmo:42384:1,2020-05-02T15:04:00Z,27.9920,-90.3255,13.0,25.0,11111222
ADCP,ioos:station:wmo:42384:1,2020-05-02T15:14:00Z,27.9920,-90.3255,13.1,25.0,11111222
ADCP,ioos:station:wmo:42384:1,2020-05-02T15:24:00Z,27.9920,-90.3255,12.9,25.0,11111222
ADCP,ioos:station:wmo:42384:1,2020-05-02T15:35:00Z,27.9920,-90.3255,13.1,25.0,11111222
ADCP,ioos:station:wmo:42384:1,2020-05-02T15:45:00Z,27.9920,-90.3255,13.0,25.0,11111222
ADCP,ioos:station:wmo:42384:1,2020-05-02T15:55:00Z,27.9920,-90.3255,13.0,25.0,11111222
ADCP,ioos:station:wmo:42384:1,2020-05-02T16:05:00Z,27.9920,-90.3255,13.1,25.0,11111222
ADCP,ioos:station:wmo:42384:1,2020-05-02T16:15:00Z,27.9920,-90.3255,13.1,25.0,11111222
ADCP,ioos:station:wmo:42384:1,2020-05-02T16:25:00Z,27.9920,-90.3255,13.1,25.0,11111222
ADCP,ioos:station:wmo:42384:1,2020-05-02T16:35:00Z,27.9920,-90.3255,12.9,25.0,11111222
ADCP,ioos:station:wmo:42384:1,2020-05-02T16:45:00Z,27.9920,-90.3255,13.1,25.0,11111222
ADCP,ioos:station:wmo:42384:1,2020-05-02T16:55:00Z,27.9920,-90.3255,13.1,25.0,11111222
ADCP,ioos:station:wmo:42384:1,2020-05-02T17:05:00Z,27.9920,-90.3255,13.1,25.0,11111222
ADCP,ioos:station:wmo:42384:1,2020-05-02T17:15:00Z,27.9920,-90.3255,13.1,25.0,11111222
ADCP,ioos:station:wmo:42384:1,2020-05-02T17:25:00Z,27.9920,-90.3255,13.1,25.0,11111222
ADCP,ioos:station:wmo:42384:1,2020-05-02T17:35:00Z,27.9920,-90.3255,13.1,25.0,11111222
ADCP,ioos:station:wmo:42384:1,2020-05-02T17:45:00Z,27.9920,-90.3255,13.1,25.0,11111222
ADCP,ioos:station:wmo:42384:1,2020-05-02T17:55:00Z,27.9920,-90.3255,13.0,25.0,11111222
ADCP,ioos:station:wmo:42384:1,2020-05-02T18:05:00Z,27.9920,-90.3255,13.1,25.0,11111222
ADCP,ioos:station:wmo:42384:1,2020-05-02T18:15:00Z,27.9920,-90.3255,13.2,25.0,11111222
ADCP,ioos:station:wmo:42384:1,2020-05-02T18:25:00Z,27.9920,-90.3255,13.1,25.0,11111222
ADCP,ioos:station:wmo:42384:1,2020-05-02T18:35:00Z,27.9920,-90.3255,13.0,25.0,11111222
ADCP,ioos:station:wmo:42384:1,2020-05-02T18:45:00Z,27.9920,-90.3255,13.0,25.0,11111222
ADCP,ioos:station:wmo:42384:1,2020-05-02T18:55:00Z,27.9920,-90.3255,13.2,25.0,11111222
ADCP,ioos:station:wmo:42384:1,2020-05-02T19:05:00Z,27.9920,-90.3255,13.0,25.0,11111222
ADCP,ioos:station:wmo:42384:1,2020-05-02T19:15:00Z,27.9920,-90.3255,13.0,25.0,11111222
ADCP,ioos:station:wmo:42384:1,2020-05-02T19:25:00Z,27.9920,-90.3255,13.1,25.0,11111222
ADCP,ioos:station:wmo:42384:1,2020-05-02T19:35:00Z,27.9920,-90.3255,13.1,25.1,11111222
ADCP,ioos:station:wmo:42384:1,2020-05-02T19:45:00Z,27.9920,-90.3255,13.1,25.1,11111222
ADCP,ioos:station:wmo:42384:1,2020-05-02T19:55:00Z,27.9920,-90.3255,13.0,25.1,11111222
ADCP,ioos:station:wmo:42384:1,2020-05-02T20:05:00Z,27.9920,-90.3255,13.0,25.1,11111222
ADCP,ioos:station:wmo:42384:1,2020-05-02T20:15:00Z,27.9920,-90.3255,13.0,25.1,11111222
ADCP,ioos:station:wmo:42384:1,2020-05-02T20:25:00Z,27.9920,-90.3255,13.0,25.1,11111222
ADCP,ioos:station:wmo:42384:1,2020-05-02T20:35:00Z,27.9920,-90.3255,13.0,25.1,11111222
ADCP,ioos:station:wmo:42384:1,2020-05-02T20:45:00Z,27.9920,-90.3255,13.1,25.1,11111222
ADCP,ioos:station:wmo:42384:1,2020-05-02T20:55:00Z,27.9920,-90.3255,13.1,25.1,11111222
ADCP,ioos:station:wmo:42384:1,2020-05-02T21:05:00Z,27.9920,-90.3255,13.0,25.1,11111222
ADCP,ioos:station:wmo:42384:1,2020-05-02T21:15:00Z,27.9920,-90.3255,13.0,25.1,11111222